SVA728 OEJN-OPIS

Flight info

Callsign SVA728
Flight time N/A
Altitude 39000
Route EGREP T532 KODIS Y214 RAPMA/N0455F290 Y214 KUTNA M440 MIDGU/N0479F390 M440 TULBU G652 KUSRA DCT VUSET DCT BIVIN G325 HANGU J139 KALMI
Aircraft B77W/H-SDE2E3FGHIRWXY/L

Departure

Time 2026-04-27 08:38
Airport King Abdulaziz International Airport (OEJN)

Arrival

Time N/A
Airport Islamabad International Airport (OPIS)
Time Latitude Longitude Altitude Speed Heading
2026-04-27 07:45 21.69348 39.13481 31 ft 0 kts 249°
2026-04-27 08:16 21.69351 39.13494 30 ft 4 kts 217°
2026-04-27 08:17 21.69369 39.13505 28 ft 4 kts 182°
2026-04-27 08:17 21.69392 39.13497 28 ft 4 kts 153°
2026-04-27 08:17 21.69404 39.13492 29 ft 1 kts 160°
2026-04-27 08:20 21.69402 39.13493 29 ft 1 kts 160°
2026-04-27 08:21 21.69380 39.13502 28 ft 6 kts 160°
2026-04-27 08:21 21.69326 39.13523 31 ft 9 kts 160°
2026-04-27 08:21 21.69264 39.13548 31 ft 10 kts 160°
2026-04-27 08:21 21.69199 39.13573 31 ft 10 kts 159°
2026-04-27 08:22 21.69132 39.13600 31 ft 11 kts 159°
2026-04-27 08:22 21.69063 39.13627 32 ft 10 kts 160°
2026-04-27 08:22 21.69019 39.13675 32 ft 10 kts 108°
2026-04-27 08:22 21.69031 39.13745 31 ft 10 kts 67°
2026-04-27 08:23 21.69058 39.13818 31 ft 11 kts 80°
2026-04-27 08:23 21.69014 39.13874 31 ft 11 kts 155°
2026-04-27 08:23 21.68943 39.13905 31 ft 11 kts 159°
2026-04-27 08:23 21.68872 39.13934 32 ft 11 kts 160°
2026-04-27 08:24 21.68800 39.13962 32 ft 11 kts 160°
2026-04-27 08:24 21.68728 39.13990 32 ft 11 kts 160°
2026-04-27 08:24 21.68656 39.14019 33 ft 11 kts 160°
2026-04-27 08:24 21.68584 39.14047 33 ft 11 kts 160°
2026-04-27 08:25 21.68512 39.14076 33 ft 11 kts 160°
2026-04-27 08:25 21.68481 39.14143 33 ft 11 kts 81°
2026-04-27 08:25 21.68504 39.14226 33 ft 12 kts 72°
2026-04-27 08:25 21.68531 39.14309 32 ft 12 kts 66°
2026-04-27 08:26 21.68565 39.14392 32 ft 12 kts 68°
2026-04-27 08:26 21.68597 39.14481 31 ft 13 kts 71°
2026-04-27 08:26 21.68627 39.14575 31 ft 14 kts 71°
2026-04-27 08:26 21.68658 39.14673 30 ft 14 kts 71°
2026-04-27 08:27 21.68691 39.14774 30 ft 15 kts 70°
2026-04-27 08:27 21.68727 39.14876 29 ft 15 kts 69°
2026-04-27 08:27 21.68764 39.14978 29 ft 15 kts 69°
2026-04-27 08:27 21.68799 39.15082 29 ft 15 kts 72°
2026-04-27 08:28 21.68817 39.15187 29 ft 15 kts 106°
2026-04-27 08:28 21.68758 39.15275 29 ft 15 kts 99°
2026-04-27 08:28 21.68784 39.15384 28 ft 15 kts 66°
2026-04-27 08:28 21.68820 39.15492 29 ft 15 kts 76°
2026-04-27 08:29 21.68828 39.15604 29 ft 15 kts 117°
2026-04-27 08:29 21.68734 39.15655 29 ft 16 kts 160°
2026-04-27 08:29 21.68632 39.15695 30 ft 16 kts 160°
2026-04-27 08:29 21.68533 39.15737 30 ft 16 kts 152°
2026-04-27 08:30 21.68477 39.15834 31 ft 16 kts 121°
2026-04-27 08:30 21.68387 39.15897 31 ft 16 kts 157°
2026-04-27 08:30 21.68282 39.15931 32 ft 16 kts 161°
2026-04-27 08:30 21.68179 39.15972 32 ft 16 kts 159°
2026-04-27 08:31 21.68077 39.16014 33 ft 16 kts 159°
2026-04-27 08:31 21.67974 39.16055 33 ft 16 kts 159°
2026-04-27 08:31 21.67872 39.16097 34 ft 16 kts 159°
2026-04-27 08:31 21.67769 39.16137 34 ft 16 kts 161°
2026-04-27 08:32 21.67683 39.16199 34 ft 16 kts 116°
2026-04-27 08:32 21.67687 39.16314 35 ft 16 kts 76°
2026-04-27 08:32 21.67714 39.16429 35 ft 16 kts 76°
2026-04-27 08:32 21.67755 39.16538 35 ft 16 kts 65°
2026-04-27 08:33 21.67796 39.16648 35 ft 16 kts 69°
2026-04-27 08:33 21.67834 39.16759 35 ft 16 kts 69°
2026-04-27 08:33 21.67872 39.16870 35 ft 16 kts 70°
2026-04-27 08:33 21.67906 39.16983 35 ft 16 kts 83°
2026-04-27 08:34 21.67842 39.17074 35 ft 16 kts 121°
2026-04-27 08:34 21.67850 39.17192 35 ft 16 kts 86°
2026-04-27 08:34 21.67773 39.17270 36 ft 16 kts 159°
2026-04-27 08:34 21.67668 39.17313 36 ft 16 kts 159°
2026-04-27 08:35 21.67561 39.17355 37 ft 16 kts 160°
2026-04-27 08:35 21.67455 39.17396 37 ft 16 kts 160°
2026-04-27 08:35 21.67348 39.17438 38 ft 16 kts 160°
2026-04-27 08:35 21.67241 39.17479 38 ft 16 kts 160°
2026-04-27 08:36 21.67134 39.17521 38 ft 16 kts 160°
2026-04-27 08:36 21.67028 39.17563 39 ft 16 kts 153°
2026-04-27 08:36 21.66977 39.17666 39 ft 17 kts 127°
2026-04-27 08:36 21.66876 39.17721 39 ft 17 kts 157°
2026-04-27 08:37 21.66769 39.17768 40 ft 17 kts 158°
2026-04-27 08:37 21.66662 39.17814 41 ft 17 kts 159°
2026-04-27 08:37 21.66638 39.17912 41 ft 17 kts 62°
2026-04-27 08:37 21.66689 39.18018 42 ft 17 kts 26°
2026-04-27 08:38 21.66799 39.17986 41 ft 17 kts 338°
2026-04-27 08:38 21.66979 39.17914 41 ft 77 kts 339°
2026-04-27 08:38 21.68260 39.17395 237 ft 193 kts 340°
2026-04-27 08:38 21.69498 39.16949 1304 ft 183 kts 340°
2026-04-27 08:39 21.70714 39.16592 2170 ft 183 kts 345°
2026-04-27 08:39 21.71990 39.16254 2781 ft 196 kts 343°
2026-04-27 08:39 21.73386 39.15924 3248 ft 216 kts 352°
2026-04-27 08:39 21.74971 39.16035 3492 ft 247 kts 18°
2026-04-27 08:40 21.76516 39.16999 3962 ft 264 kts 38°
2026-04-27 08:40 21.77982 39.18237 4719 ft 270 kts 36°
2026-04-27 08:40 21.78981 39.19025 5312 ft 270 kts 35°
2026-04-27 08:40 21.81065 39.20638 5987 ft 279 kts 35°
2026-04-27 08:41 21.82663 39.21872 5991 ft 284 kts 35°
2026-04-27 08:41 21.84242 39.23094 6004 ft 282 kts 35°
2026-04-27 08:41 21.85811 39.24307 6005 ft 280 kts 35°
2026-04-27 08:41 21.87394 39.25529 6011 ft 280 kts 35°
2026-04-27 08:42 21.88447 39.26342 6011 ft 281 kts 35°
2026-04-27 08:42 21.90036 39.27569 6014 ft 282 kts 35°
2026-04-27 08:42 21.91630 39.28799 6014 ft 282 kts 35°
2026-04-27 08:42 21.93223 39.30029 6022 ft 282 kts 34°
2026-04-27 08:43 21.94845 39.31221 6168 ft 282 kts 30°
2026-04-27 08:43 21.96525 39.32329 6916 ft 287 kts 30°
2026-04-27 08:43 21.98257 39.33454 7664 ft 296 kts 30°
2026-04-27 08:43 22.00008 39.34597 8397 ft 303 kts 30°
2026-04-27 08:44 22.02421 39.36179 9485 ft 310 kts 31°
2026-04-27 08:44 22.03670 39.37000 10038 ft 314 kts 31°
2026-04-27 08:44 22.05569 39.38253 10619 ft 330 kts 31°
2026-04-27 08:44 22.07612 39.39602 10832 ft 359 kts 31°
2026-04-27 08:45 22.09794 39.41045 11136 ft 383 kts 31°
2026-04-27 08:45 22.12137 39.42599 11866 ft 395 kts 31°
2026-04-27 08:45 22.14462 39.44142 12713 ft 401 kts 31°
2026-04-27 08:45 22.16850 39.45728 13080 ft 407 kts 31°
2026-04-27 08:46 22.19275 39.47337 13039 ft 409 kts 31°
2026-04-27 08:46 22.21685 39.48938 13059 ft 406 kts 31°
2026-04-27 08:46 22.24099 39.50539 13201 ft 408 kts 31°
2026-04-27 08:46 22.26540 39.52159 14075 ft 414 kts 30°
2026-04-27 08:47 22.28998 39.53791 15040 ft 417 kts 30°
2026-04-27 08:47 22.31455 39.55474 15862 ft 419 kts 34°
2026-04-27 08:47 22.33521 39.57735 16386 ft 433 kts 57°
2026-04-27 08:47 22.34892 39.60626 17053 ft 434 kts 65°
2026-04-27 08:48 22.36254 39.63592 17695 ft 445 kts 62°
2026-04-27 08:48 22.37737 39.66539 18577 ft 450 kts 60°
2026-04-27 08:48 22.39280 39.69508 19314 ft 457 kts 60°
2026-04-27 08:48 22.40852 39.72524 20041 ft 464 kts 60°
2026-04-27 08:49 22.42443 39.75595 20803 ft 471 kts 60°
2026-04-27 08:49 22.44043 39.78705 21564 ft 477 kts 60°
2026-04-27 08:49 22.45665 39.81862 22289 ft 481 kts 59°
2026-04-27 08:49 22.47513 39.84852 22698 ft 481 kts 46°
2026-04-27 08:50 22.49982 39.87313 23029 ft 487 kts 36°
2026-04-27 08:50 22.52648 39.89623 23718 ft 490 kts 36°
2026-04-27 08:50 22.55279 39.91967 24460 ft 493 kts 36°
2026-04-27 08:50 22.57907 39.94380 25057 ft 499 kts 37°
2026-04-27 08:51 22.60548 39.96860 25610 ft 505 kts 37°
2026-04-27 08:51 22.63195 39.99380 26186 ft 510 kts 37°
2026-04-27 08:51 22.65861 40.01938 26788 ft 514 kts 37°
2026-04-27 08:51 22.68543 40.04517 27374 ft 518 kts 37°
2026-04-27 08:52 22.71248 40.07117 27951 ft 522 kts 37°
2026-04-27 08:52 22.73973 40.09732 28444 ft 527 kts 37°
2026-04-27 08:52 22.76740 40.12385 28906 ft 533 kts 36°
2026-04-27 08:52 22.79522 40.15052 29408 ft 537 kts 36°
2026-04-27 08:53 22.82330 40.17746 29907 ft 541 kts 36°
2026-04-27 08:53 22.85160 40.20462 30349 ft 544 kts 36°
2026-04-27 08:53 22.87998 40.23189 30751 ft 547 kts 36°
2026-04-27 08:53 22.90842 40.25924 31198 ft 549 kts 36°
2026-04-27 08:54 22.93715 40.28687 31508 ft 552 kts 36°
2026-04-27 08:54 22.96587 40.31452 31956 ft 551 kts 36°
2026-04-27 08:54 22.99441 40.34203 32502 ft 548 kts 36°
2026-04-27 08:54 23.02284 40.36945 33082 ft 544 kts 36°
2026-04-27 08:55 23.05099 40.39662 33649 ft 541 kts 35°
2026-04-27 08:55 23.07916 40.42378 34145 ft 539 kts 35°
2026-04-27 08:55 23.10712 40.45076 34545 ft 539 kts 35°
2026-04-27 08:55 23.13483 40.47749 34849 ft 539 kts 35°
2026-04-27 08:56 23.16280 40.50451 35301 ft 536 kts 36°
2026-04-27 08:56 23.19056 40.53137 35831 ft 532 kts 36°
2026-04-27 08:56 23.21814 40.55804 36261 ft 530 kts 36°
2026-04-27 08:56 23.24521 40.58528 36633 ft 533 kts 41°
2026-04-27 08:57 23.28945 40.65119 37014 ft 549 kts 58°
2026-04-27 08:57 23.30558 40.68897 37029 ft 554 kts 67°
2026-04-27 08:58 23.33155 40.76758 37031 ft 549 kts 68°
2026-04-27 08:58 23.35770 40.84529 37036 ft 546 kts 67°
2026-04-27 08:59 23.38441 40.92264 37028 ft 546 kts 67°
2026-04-27 08:59 23.41122 40.99982 37050 ft 545 kts 67°
2026-04-27 09:00 23.43801 41.07721 37045 ft 546 kts 67°
2026-04-27 09:00 23.46473 41.15471 37029 ft 548 kts 67°
2026-04-27 09:01 23.49149 41.23248 37037 ft 548 kts 67°
2026-04-27 09:01 23.51822 41.31033 37036 ft 549 kts 67°
2026-04-27 09:02 23.54496 41.38831 37035 ft 550 kts 67°
2026-04-27 09:02 23.57172 41.46652 37030 ft 550 kts 67°
2026-04-27 09:03 23.59842 41.54469 37031 ft 551 kts 67°
2026-04-27 09:03 23.62509 41.62294 37020 ft 550 kts 67°
2026-04-27 09:04 23.65169 41.70111 37026 ft 550 kts 67°
2026-04-27 09:04 23.67816 41.77941 37019 ft 550 kts 68°
2026-04-27 09:05 23.70307 41.85831 37019 ft 550 kts 69°
2026-04-27 09:05 23.72773 41.93746 37022 ft 550 kts 69°
2026-04-27 09:06 23.75266 42.01587 37015 ft 550 kts 68°
2026-04-27 09:06 23.77932 42.09403 37022 ft 550 kts 67°
2026-04-27 09:07 23.80644 42.17214 37024 ft 550 kts 67°
2026-04-27 09:07 23.83324 42.25034 37026 ft 550 kts 67°
2026-04-27 09:08 23.85984 42.32867 37023 ft 550 kts 67°
2026-04-27 09:08 23.88639 42.40706 37026 ft 550 kts 67°
2026-04-27 09:09 23.91292 42.48547 37027 ft 551 kts 67°
2026-04-27 09:09 23.93946 42.56404 37024 ft 551 kts 67°
2026-04-27 09:10 23.96600 42.64277 37014 ft 552 kts 67°
2026-04-27 09:10 23.99247 42.72145 37010 ft 552 kts 67°
2026-04-27 09:11 24.01897 42.80033 37018 ft 552 kts 67°
2026-04-27 09:11 24.03699 42.88155 37012 ft 553 kts 87°
2026-04-27 09:11 24.03614 42.92360 37011 ft 553 kts 98°
2026-04-27 09:12 24.02924 42.96474 37002 ft 548 kts 109°
2026-04-27 09:12 24.00617 43.04340 37006 ft 548 kts 110°
2026-04-27 09:13 23.98377 43.12330 37002 ft 550 kts 109°
2026-04-27 09:13 23.96201 43.20356 37003 ft 552 kts 109°
2026-04-27 09:14 23.94019 43.28423 36992 ft 552 kts 109°
2026-04-27 09:14 23.91828 43.36467 36992 ft 552 kts 109°
2026-04-27 09:15 23.89631 43.44498 36979 ft 551 kts 109°
2026-04-27 09:15 23.87435 43.52509 36979 ft 549 kts 109°
2026-04-27 09:16 23.85243 43.60487 36969 ft 548 kts 109°
2026-04-27 09:16 23.83052 43.68446 36962 ft 546 kts 109°
2026-04-27 09:17 23.80863 43.76381 36957 ft 545 kts 109°
2026-04-27 09:17 23.78678 43.84286 36947 ft 544 kts 109°
2026-04-27 09:18 23.77025 43.92361 36944 ft 547 kts 98°
2026-04-27 09:18 23.76469 44.00642 36946 ft 547 kts 95°
2026-04-27 09:19 23.75915 44.08928 36936 ft 548 kts 95°
2026-04-27 09:19 23.75299 44.17221 36952 ft 548 kts 96°
2026-04-27 09:20 23.74664 44.25517 36944 ft 549 kts 96°
2026-04-27 09:20 23.74027 44.33816 36951 ft 550 kts 96°
2026-04-27 09:21 23.73389 44.42134 36943 ft 550 kts 96°
2026-04-27 09:21 23.72747 44.50459 36953 ft 550 kts 96°
2026-04-27 09:22 23.72101 44.58771 36958 ft 550 kts 96°
2026-04-27 09:22 23.71449 44.67085 36950 ft 549 kts 96°
2026-04-27 09:23 23.70795 44.75379 36956 ft 548 kts 96°
2026-04-27 09:23 23.70138 44.83662 36960 ft 548 kts 96°
2026-04-27 09:24 23.69476 44.91935 36956 ft 547 kts 96°
2026-04-27 09:24 23.68808 45.00196 36950 ft 547 kts 96°
2026-04-27 09:25 23.68135 45.08470 36952 ft 547 kts 96°
2026-04-27 09:25 23.67460 45.16728 36945 ft 547 kts 96°
2026-04-27 09:26 23.66779 45.24997 36946 ft 547 kts 96°
2026-04-27 09:26 23.66097 45.33255 36948 ft 547 kts 96°
2026-04-27 09:27 23.65418 45.41449 36954 ft 547 kts 96°
2026-04-27 09:27 23.64727 45.49716 36935 ft 547 kts 96°
2026-04-27 09:28 23.64033 45.57978 36932 ft 547 kts 96°
2026-04-27 09:28 23.63335 45.66224 36932 ft 546 kts 96°
2026-04-27 09:29 23.62633 45.74478 36931 ft 546 kts 96°
2026-04-27 09:29 23.62049 45.81326 36923 ft 546 kts 96°
2026-04-27 09:30 23.61341 45.89570 36923 ft 545 kts 96°
2026-04-27 09:30 23.60630 45.97795 36930 ft 545 kts 96°
2026-04-27 09:31 23.59914 46.06030 36923 ft 545 kts 96°
2026-04-27 09:31 23.59194 46.14258 36928 ft 545 kts 96°
2026-04-27 09:32 23.58469 46.22492 36925 ft 546 kts 96°
2026-04-27 09:32 23.57739 46.30726 36917 ft 545 kts 96°
2026-04-27 09:33 23.57007 46.38954 36933 ft 545 kts 96°
2026-04-27 09:33 23.56271 46.47179 36940 ft 545 kts 96°
2026-04-27 09:34 23.55528 46.55396 36928 ft 545 kts 96°
2026-04-27 09:34 23.54772 46.63614 36917 ft 545 kts 96°
2026-04-27 09:35 23.54016 46.71768 36922 ft 543 kts 96°
2026-04-27 09:35 23.53254 46.79957 36916 ft 543 kts 96°
2026-04-27 09:36 23.52489 46.88134 36906 ft 543 kts 96°
2026-04-27 09:36 23.51721 46.96306 36908 ft 543 kts 97°
2026-04-27 09:37 23.50948 47.04487 36893 ft 543 kts 97°
2026-04-27 09:37 23.50169 47.12680 36899 ft 543 kts 97°
2026-04-27 09:38 23.49386 47.20865 36901 ft 543 kts 96°
2026-04-27 09:38 23.48599 47.29050 36890 ft 543 kts 96°
2026-04-27 09:39 23.47809 47.37227 36883 ft 543 kts 97°
2026-04-27 09:39 23.47014 47.45409 36889 ft 543 kts 97°
2026-04-27 09:40 23.46216 47.53582 36883 ft 543 kts 97°
2026-04-27 09:40 23.45419 47.61760 36885 ft 543 kts 97°
2026-04-27 09:41 23.44622 47.69924 36866 ft 542 kts 96°
2026-04-27 09:41 23.43820 47.78091 36874 ft 542 kts 96°
2026-04-27 09:42 23.43020 47.86195 36873 ft 542 kts 96°
2026-04-27 09:42 23.42204 47.94401 36865 ft 541 kts 96°
2026-04-27 09:43 23.41397 48.02490 36874 ft 541 kts 96°
2026-04-27 09:43 23.40579 48.10630 36863 ft 541 kts 97°
2026-04-27 09:44 23.39757 48.18783 36855 ft 541 kts 97°
2026-04-27 09:44 23.38931 48.26930 36855 ft 541 kts 96°
2026-04-27 09:45 23.38133 48.35063 36850 ft 541 kts 94°
2026-04-27 09:45 23.37790 48.43239 36858 ft 540 kts 92°
2026-04-27 09:46 23.37502 48.51408 36856 ft 540 kts 92°
2026-04-27 09:46 23.37186 48.59577 36857 ft 540 kts 92°
2026-04-27 09:47 23.36850 48.67735 36852 ft 540 kts 92°
2026-04-27 09:47 23.36508 48.75899 36852 ft 540 kts 92°
2026-04-27 09:48 23.36167 48.84002 36855 ft 540 kts 92°
2026-04-27 09:48 23.35820 48.92155 36841 ft 539 kts 92°
2026-04-27 09:49 23.35469 49.00314 36844 ft 539 kts 92°
2026-04-27 09:49 23.35115 49.08457 36846 ft 539 kts 92°
2026-04-27 09:50 23.34752 49.16610 36845 ft 539 kts 92°
2026-04-27 09:50 23.34385 49.24745 36842 ft 538 kts 92°
2026-04-27 09:51 23.34015 49.32874 36847 ft 538 kts 92°
2026-04-27 09:51 23.33641 49.41018 36839 ft 539 kts 92°
2026-04-27 09:52 23.33263 49.49162 36840 ft 539 kts 92°
2026-04-27 09:52 23.32880 49.57296 36822 ft 538 kts 92°
2026-04-27 09:53 23.32494 49.65431 36838 ft 538 kts 92°
2026-04-27 09:53 23.32106 49.73498 36839 ft 537 kts 92°
2026-04-27 09:54 23.31712 49.81612 36841 ft 537 kts 92°
2026-04-27 09:54 23.31314 49.89721 36838 ft 537 kts 92°
2026-04-27 09:55 23.30912 49.97835 36829 ft 537 kts 92°
2026-04-27 09:55 23.30302 50.09978 36835 ft 536 kts 92°
2026-04-27 09:56 23.29890 50.18068 36839 ft 536 kts 92°
2026-04-27 09:56 23.29474 50.26158 36816 ft 536 kts 92°
2026-04-27 09:57 23.29055 50.34243 36834 ft 535 kts 92°
2026-04-27 09:57 23.28632 50.42312 36843 ft 535 kts 92°
2026-04-27 09:58 23.28203 50.50397 36836 ft 535 kts 92°
2026-04-27 09:58 23.27772 50.58465 36835 ft 535 kts 92°
2026-04-27 09:59 23.27336 50.66549 36839 ft 535 kts 92°
2026-04-27 09:59 23.26895 50.74634 36835 ft 536 kts 92°
2026-04-27 10:00 23.26451 50.82721 36837 ft 536 kts 92°
2026-04-27 10:00 23.26004 50.90766 36834 ft 536 kts 93°
2026-04-27 10:01 23.25551 50.98859 36830 ft 536 kts 93°
2026-04-27 10:01 23.25094 51.06945 36837 ft 536 kts 93°
2026-04-27 10:02 23.24633 51.15026 36831 ft 535 kts 93°
2026-04-27 10:02 23.24160 51.23106 36833 ft 535 kts 93°
2026-04-27 10:03 23.23679 51.31175 36832 ft 534 kts 93°
2026-04-27 10:03 23.23194 51.39231 36834 ft 534 kts 94°
2026-04-27 10:04 23.21952 51.47175 36834 ft 533 kts 105°
2026-04-27 10:04 23.19440 51.54733 36827 ft 531 kts 115°
2026-04-27 10:05 23.16484 51.62097 36824 ft 532 kts 114°
2026-04-27 10:05 23.13581 51.69490 36824 ft 532 kts 114°
2026-04-27 10:06 23.10706 51.76885 36826 ft 532 kts 114°
2026-04-27 10:06 23.07821 51.84290 36819 ft 532 kts 114°
2026-04-27 10:07 23.04931 51.91687 36822 ft 532 kts 114°
2026-04-27 10:07 23.02033 51.99092 36816 ft 533 kts 114°
2026-04-27 10:08 22.99136 52.06482 36821 ft 533 kts 114°
2026-04-27 10:08 22.96252 52.13835 36817 ft 533 kts 114°
2026-04-27 10:09 22.93342 52.21244 36814 ft 533 kts 114°
2026-04-27 10:09 22.90433 52.28637 36815 ft 533 kts 114°
2026-04-27 10:10 22.87519 52.36036 36805 ft 533 kts 114°
2026-04-27 10:10 22.84608 52.43413 36815 ft 532 kts 114°
2026-04-27 10:11 22.82247 52.51000 36814 ft 531 kts 103°
2026-04-27 10:11 22.81123 52.58889 36820 ft 530 kts 96°
2026-04-27 10:12 22.80239 52.66830 36814 ft 530 kts 96°
2026-04-27 10:12 22.79298 52.74747 36812 ft 530 kts 96°
2026-04-27 10:13 22.78329 52.82673 36814 ft 531 kts 96°
2026-04-27 10:13 22.77355 52.90608 36805 ft 531 kts 96°
2026-04-27 10:14 22.76389 52.98471 36814 ft 530 kts 96°
2026-04-27 10:14 22.75414 53.06387 36815 ft 530 kts 96°
2026-04-27 10:15 22.74436 53.14299 36815 ft 530 kts 96°
2026-04-27 10:15 22.73454 53.22205 36818 ft 529 kts 97°
2026-04-27 10:16 22.72468 53.30104 36815 ft 530 kts 96°
2026-04-27 10:16 22.71478 53.38010 36814 ft 530 kts 97°
2026-04-27 10:17 22.70484 53.45918 36818 ft 529 kts 97°
2026-04-27 10:17 22.69488 53.53815 36794 ft 529 kts 97°
2026-04-27 10:18 22.68486 53.61714 36808 ft 528 kts 97°
2026-04-27 10:18 22.67481 53.69587 36811 ft 528 kts 97°
2026-04-27 10:19 22.66644 53.76129 36814 ft 527 kts 96°
2026-04-27 10:19 22.65635 53.83992 36809 ft 527 kts 96°
2026-04-27 10:20 22.64625 53.91836 36812 ft 526 kts 96°
2026-04-27 10:20 22.63611 53.99679 36814 ft 526 kts 96°
2026-04-27 10:21 22.62593 54.07515 36809 ft 526 kts 96°
2026-04-27 10:21 22.61572 54.15355 36805 ft 526 kts 96°
2026-04-27 10:22 22.60546 54.23202 36789 ft 526 kts 96°
2026-04-27 10:22 22.59517 54.31034 36806 ft 525 kts 96°
2026-04-27 10:23 22.58489 54.38857 36805 ft 525 kts 96°
2026-04-27 10:23 22.57461 54.46668 36798 ft 524 kts 96°
2026-04-27 10:24 22.56428 54.54473 36808 ft 524 kts 96°
2026-04-27 10:24 22.55392 54.62271 36800 ft 524 kts 96°
2026-04-27 10:25 22.54359 54.70016 36798 ft 524 kts 96°
2026-04-27 10:25 22.53309 54.77857 36795 ft 523 kts 96°
2026-04-27 10:26 22.52270 54.85593 36797 ft 523 kts 96°
2026-04-27 10:26 22.51222 54.93375 36788 ft 523 kts 96°
2026-04-27 10:27 22.50169 55.01151 36793 ft 522 kts 96°
2026-04-27 10:27 22.49115 55.08914 36799 ft 522 kts 96°
2026-04-27 10:28 22.48056 55.16683 36803 ft 521 kts 96°
2026-04-27 10:28 22.46997 55.24429 36795 ft 521 kts 96°
2026-04-27 10:29 22.45963 55.32186 36798 ft 520 kts 93°
2026-04-27 10:29 22.46388 55.39887 36812 ft 511 kts 74°
2026-04-27 10:30 22.48669 55.47083 36815 ft 505 kts 63°
2026-04-27 10:30 22.51406 55.54091 36810 ft 507 kts 63°
2026-04-27 10:31 22.54082 55.61159 36810 ft 508 kts 64°
2026-04-27 10:31 22.56733 55.68256 36813 ft 509 kts 64°
2026-04-27 10:32 22.59382 55.75368 36815 ft 509 kts 64°
2026-04-27 10:32 22.62028 55.82473 36814 ft 509 kts 64°
2026-04-27 10:33 22.64672 55.89577 36815 ft 508 kts 64°
2026-04-27 10:33 22.67311 55.96679 36818 ft 508 kts 64°
2026-04-27 10:34 22.69925 56.03724 36824 ft 507 kts 64°
2026-04-27 10:34 22.72562 56.10846 36829 ft 507 kts 64°
2026-04-27 10:35 22.75184 56.17937 36828 ft 506 kts 64°
2026-04-27 10:35 22.77782 56.24972 36826 ft 506 kts 64°
2026-04-27 10:36 22.80390 56.32049 36853 ft 506 kts 64°
2026-04-27 10:36 22.82895 56.39197 36827 ft 510 kts 69°
2026-04-27 10:37 22.84432 56.46730 36843 ft 513 kts 76°
2026-04-27 10:37 22.85806 56.54329 36842 ft 513 kts 75°
2026-04-27 10:38 22.87221 56.61908 36845 ft 514 kts 75°
2026-04-27 10:38 22.88659 56.69502 36849 ft 514 kts 75°
2026-04-27 10:39 22.90092 56.77088 36865 ft 514 kts 75°
2026-04-27 10:39 22.91522 56.84692 36871 ft 514 kts 75°
2026-04-27 10:40 22.92945 56.92290 36871 ft 514 kts 75°
2026-04-27 10:40 22.94364 56.99886 36870 ft 513 kts 75°
2026-04-27 10:41 22.95779 57.07477 36872 ft 513 kts 75°
2026-04-27 10:41 22.97187 57.15057 36876 ft 512 kts 75°
2026-04-27 10:42 22.98592 57.22636 36870 ft 512 kts 75°
2026-04-27 10:42 23.00029 57.30187 36859 ft 510 kts 72°
2026-04-27 10:43 23.02320 57.37423 36867 ft 505 kts 64°
2026-04-27 10:43 23.04876 57.44528 36857 ft 506 kts 65°
2026-04-27 10:44 23.07384 57.51672 36866 ft 506 kts 65°
2026-04-27 10:44 23.09872 57.58839 36845 ft 508 kts 65°
2026-04-27 10:45 23.12360 57.66025 36840 ft 507 kts 65°
2026-04-27 10:45 23.14839 57.73189 36841 ft 507 kts 65°
2026-04-27 10:46 23.17319 57.80360 36842 ft 507 kts 65°
2026-04-27 10:46 23.19788 57.87519 36830 ft 504 kts 65°
2026-04-27 10:47 23.22249 57.94662 36821 ft 505 kts 65°
2026-04-27 10:47 23.24709 58.01812 36814 ft 506 kts 65°
2026-04-27 10:48 23.27351 58.08900 36804 ft 505 kts 63°
2026-04-27 10:48 23.30115 58.15925 36780 ft 506 kts 63°
2026-04-27 10:49 23.32851 58.23003 36778 ft 507 kts 63°
2026-04-27 10:49 23.35540 58.30053 36773 ft 508 kts 63°
2026-04-27 10:50 23.38249 58.37162 36757 ft 508 kts 63°
2026-04-27 10:50 23.41324 58.44019 36760 ft 501 kts 54°
2026-04-27 10:51 23.45432 58.50073 36762 ft 495 kts 45°
2026-04-27 10:51 23.49833 58.55840 36753 ft 496 kts 46°
2026-04-27 10:52 23.54203 58.61662 36735 ft 496 kts 46°
2026-04-27 10:52 23.58540 58.67484 36744 ft 496 kts 46°